Regional Weather Roundup
Issued by NWS Huntsville, AL

Home | Current Version | Previous Version | Text Only | Print | Product List | Glossary On
Versions: 1 2 3 4 5 6 7 8 9 10 11 12 13 14 15 16 17 18 19 20 21 22 23 24 25 26 27
000
ASUS44 KHUN 230310
RWRHUN

WEATHER ROUNDUP FOR THE TENNESSEE VALLEY
NATIONAL WEATHER SERVICE HUNTSVILLE AL
1000 PM CDT SUN OCT 22 2017

ALZ001>004-230400-
NORTHWEST ALABAMA

CITY           SKY/WX    TMP DP  RH WIND       PRES   REMARKS
COURTLAND HCN    N/A     70 N/A N/A SE7         N/A
RUSSELLVILLE     N/A     70 N/A N/A MISG        N/A
SHOALS AIRPORT LGT RAIN  70  66  87 SE8       29.93F
SHOALS TVA RES   N/A     68 N/A N/A MISG        N/A
$$

ALZ005>007-016-230400-
NORTH CENTRAL ALABAMA

CITY           SKY/WX    TMP DP  RH WIND       PRES   REMARKS
CULLMAN AG STN   N/A     68 N/A N/A SE3         N/A
DECATUR AP     LGT RAIN  71  68  90 SE14G22   29.96F
HUNTSVILLE AP  LGT RAIN  72  68  87 SE20      29.97F
MERIDIANVILLE  CLOUDY    72  63  73 SE13G22   29.99F
REDSTONE ARSN  LGT RAIN  71  66  83 SE15G22   29.97F
VINEMONT AP    RAIN      68  66  93 SE6       30.01F
$$

ALZ008>010-230400-
NORTHEAST ALABAMA

CITY           SKY/WX    TMP DP  RH WIND       PRES   REMARKS
ALBERTVILLE    LGT RAIN  66  66 100 SE8       30.03F
FORT PAYNE     CLOUDY    70  61  73 SE8       30.07R
SCOTTSBORO AP  DRIZZLE   72  66  83 VRB6G13   30.04F
SCOTTSBORO HCN   N/A     72 N/A N/A MISG        N/A
VALLEY HEAD      N/A     70 N/A N/A MISG        N/A
$$

TNZ076-096-097-230400-
SOUTHEASTERN MIDDLE TENNESSEE

CITY           SKY/WX    TMP DP  RH WIND       PRES   REMARKS
TULLAHOMA      CLEAR     70  59  68 SE15      30.01F
WINCHESTER     PTCLDY    72  61  68 SE16        N/A
$$

...SURROUNDING SITES...

CITY           SKY/WX    TMP DP  RH WIND       PRES   REMARKS
ATLANTA        DRIZZLE   68  67  96 E13G21    30.15R
ANNISTON       CLOUDY    72  65  78 E12       30.07R
BIRMINGHAM     LGT RAIN  71  67  87 SE12      30.04R
CHATTANOOGA    CLOUDY    72  60  66 SE8G18    30.08F
CORINTH        DRIZZLE   64  61  88 VRB5G12   29.96R
DALTON         CLOUDY    70  63  78 SE10G24   30.12S
GADSDEN        LGT RAIN  71  68  90 E7          N/A
GOLDEN TRNGL   CLOUDY    68  67  96 W5        29.97F
HALEYVILLE     LGT RAIN  68  68 100 SE13G24   29.97F
JACKSON TN     LGT RAIN  60  59  96 NW10      29.96R
MEMPHIS        CLOUDY    60  58  92 NW8       29.99R
NASHVILLE      CLOUDY    73  62  68 SE13G21   29.97F
ROME           CLOUDY    72  65  78 E8G16     30.10R
SAVANNAH       CLOUDY    68  66  94 SW12      29.93R
SELMER         CLOUDY    63  63 100 W10       29.95R FOG
TUPELO         LGT RAIN  64  61  90 VRB7      29.97S
TUSCALOOSA     LGT RAIN  70  70 100 SE8       29.95F
$$

...GULF COAST WEATHER...

CITY           SKY/WX    TMP DP  RH WIND       PRES   REMARKS
GULFPORT       MOCLDY    69  69 100 W3        29.98R
PASCAGOULA     PTCLDY    69  66  90 NW5       29.96R
MOBILE         PTCLDY    69  68  96 E5        29.95F
GULF SHORES    CLOUDY    69  69 100 E9        29.97F
PENSACOLA      LGT RAIN  72  70  93 E7        29.98F
DESTIN         HVY RAIN  79  74  84 VRB5      29.99
PANAMA CITY    CLOUDY    75  73  94 SE7       30.03S
APPALACHICOLA  CLOUDY    79  76  90 S9        30.04R
$$





USA.gov is the U.S. government's official web portal to all federal, state and local government web resources and services.